View from above orbital plane
|
View from above satellite
|
Ground track
|
The orbit data is extracted from the following two-line orbital elements,
1 19119U 88039A 21104.29064600 -.00000283 00000-0 -12139-3 0 9998
2 19119 71.0045 47.6297 0009167 93.7494 58.1143 14.15168935699474
Epoch (UTC): | 14 April 2021 06:58:31 |
Eccentricity: | 0.0009167 |
inclination: | 71.0045° |
perigee height: | 835 km |
apogee height: | 848 km |
right ascension of ascending node: | 47.6297° |
argument of perigee: | 93.7494° |
revolutions per day: | 14.15168935 |
mean anomaly at epoch: | 58.1143° |
orbit number at epoch: | 69947 |
The dashed part of the orbit path shows where the satellite is in the earth's shadow,
|
|